{"data":{"norad_id":65782,"intl_designator":"2025-217W","name":"KUIPER-00169","alt_names":[],"object_type":"PAYLOAD","status":"ACTIVE","operator":null,"country":"US","launch_date":"2025-09-25","launch_site_code":"AFETR","launch_vehicle":null,"mission":null,"orbit_class":"UNKNOWN","rcs_meters":null,"size_class":null,"mass_kg":null,"dimensions":null,"purposes":[],"wikipedia_slug":null,"has_3d_model":false,"image_url":null,"decayed_at":null,"tle_current":{"epoch":"2026-05-25T00:52:38.231904Z","epoch_age_seconds":68580,"freshness":"FRESH","line1":"1 65782U 25217W   26145.03655361  .00001259  00000+0  19406-3 0  9991","line2":"2 65782  51.9024  55.5058 0000897  93.7021 266.4044 14.79936748 36323","mean_motion":14.79936748,"eccentricity":8.97e-5,"inclination_deg":51.9024,"raan_deg":55.5058,"arg_perigee_deg":93.7021,"mean_anomaly_deg":266.4044,"bstar":0.00019406,"rev_number":3632,"period_min":97.301455751135,"perigee_km":628.89521051917,"apogee_km":630.15238486627,"semimajor_km":7007.6607976927,"source":"CELESTRAK","updated_at":"2026-05-25T13:38:05.690124Z"}}}